Погода в Львове

Поиск расширенной информации на нашем сайте:

Полезная информация:

Новости сайта



02.01.2020
Опубликован Долгосрочный прогноз погоды по городам России и ближнего зарубежья на январь 2020 года.
Карты: Прогноз на январь и февраль 2020 года, Сравнение прогнозируемой аномалии приземной температуры воздуха на январь 2020 года по разным моделям.




Погода в Львове - сегодня

Время (UTC), дата Ветер
(°,м/с) 
Видим.   Явления Облачность Т
(°С)
Тd
(°С)
f(%) Тe
(°С)
Pmin
(гПа)
dP
(гПа)
Po
(мм)
O2
(г/м3)
Тmin Tmax R s Состояние
почвы
12 16.04.21 270 (З) 9000 м  слаб. ливневой дождь  10/10 180 м кучево-дожд. 
[Cb cap]
+2.2 +1.7 96 1015.9  0.9  732  292           
15 16.04.21 270 (З) 9000 м  слаб. ливневой дождь  10/10 210 м кучево-дожд. 
[Cb cap]
+2.1 +1.3 94 1016.7  0.7  733  293           
18 16.04.21 270 (З) 10 км  слаб. ливневой дождь  10/10 100 м кучево-дожд. 
[Cb cap]
+1.7 +1.2 96 1017.6  0.7  733  293    +3.1     
21 16.04.21 280 (З) 7000 м  слаб. ливневой дождь  10/10 100 м кучево-дожд. 
[Cb cap]
+2 +1.7 98 1017.9  0.5  734  293           
00 17.04.21 270 (З) 8000 м  в посл. час ливневой дождь  10/10 100 м кучево-дожд. 
[Cb cap]
+2.2 +2.2 100 1018.1  0.2  734  293           
03 17.04.21 270 (З) 10 км    10/10 150 м 
[St]
+2.2 +1.7 96 1018.4  0.3  734  293           
06 17.04.21 280 (З) 10 км  в посл. час ливневой дождь  10/10 200 м кучево-дожд. 
[Cb cap]
+3 +2 93 +1  1019.3  735  292  +1.2       
09 17.04.21 280 (З) 10 км    10/10 360 м 
[Sc]
+4.9 +2.7 86 +3  1019.4  0.3  735  290           
12 17.04.21 290 (З) 10 км    10/10 570 м 
[Sc]
+6.8 +3 77 +6  1019.1  735  288           
15 17.04.21 290 (З) 10 км    9/9 800 м 
[Sc]
+8.4 +3 69 +8  1018.6  -0.3  735  287           
18 17.04.21 290 (З) 10 км    9/9 960 м 
[Sc]
+6.3 +2.7 78 +6  1019.5  0.6  735  289    +8.4       
21 17.04.21 тихо ()   10 км    8/8 1050 м 
[Sc]
+3.4 +2.4 93 +3  1020.3  0.4  736  292           
00 18.04.21 тихо ()   9000 м  дымка  8/0 средняя 
[Ac trans]
+3.1 +2.6 97 +3  1020  -0.3  735  293           
03 18.04.21 тихо ()   0300 м  туман  ?/?  
-0.2 -0.2 100 -0  1020.3  -0.3  735  296           
06 18.04.21 080 (В) 10 км  {туман}  8/8 1050 м 
[Sc]
+6.1 +4.2 88 +7  1019.5  0.2  735  289  -1.1         
09 18.04.21 180 (Ю) 10 км    9/9 900 м 
[Sc]
+9.6 +2.5 61 +11  1018.9  -0.2  735  286           
12 18.04.21 040 (СВ) 10 км    10/10 1080 м 
[Sc]
+11 +2.1 54 +11  1017.9  -0.7  735  284           
15 18.04.21 090 (В) 10 км    10/0 средняя 
[Ac As]
+11.6 +2.9 55 +12  1017.2  -0.5  734  283           
18 18.04.21 тихо ()   10 км    10/0 средняя 
[Ac As]
+10.1 +2.9 61 +10  1017.9  0.3  734  285    +12.4       
21 18.04.21 тихо ()   10 км    10/10 1300 м 
[Sc]
+8.1 +4.5 78 +8  1018  -0.1  734  287           
00 19.04.21 340 (С) 10 км    10/10 1440 м 
[Sc]
+8.2 +4.8 79 +9  1017  -1  734  286           
03 19.04.21 тихо ()   10 км    9/0 средняя 
[Ac trans]
+6.7 +4.6 86 +7  1015.8  -1.2  733  287           
06 19.04.21 тихо ()   10 км    10/10 900 м 
[Sc]
+7.9 +5.5 85 +8  1015.7  733  286  +6.2         
09 19.04.21 130 (ЮВ) 10 км    10/10 400 м 
[Sc]
+9.5 +6.2 80 +9  1015.8  0.3  733  284           
12 19.04.21 040 (СВ) 10 км  {ливн. осадки}  10/10 570 м кучево-дожд. 
[Cb calv]
+10.6 +6.8 77 +11  1015.4  -0.2  733  283           
Время (UTC), дата Ветер
(°,м/с) 
Видим.   Явления Облачность Т
(°С)
Тd
(°С)
f(%) Тe
(°С)
Pmin
(гПа)
dP
(гПа)
Po
(мм)
O2
(г/м3)
Тmin Tmax R s Состояние
почвы

Для получения пояснительной информации подведите курсор к названию столбца.

ПОГОДА в Львове - архив

Всё, что Вы хотите узнать о погоде в Львове - удобно и подробно!

Выберите нужную дату (начиная с 1 января 2019* года) и нажмите кнопку "Найти".
Будут отображены архивные сводки погоды по пункту Львов, начиная с указанной даты.


Отображать данные в формате CSV (для использования в таблицах Excel)


Внимание! Наш архив погоды предназначен исключительно для личного некоммерческого использования в познавательных целях. Если Вам необходимы официальные справки о состоянии погоды (для производственных, юридических, коммерческих и т.п. целей), обращайтесь в органы Росгидромета.

*Примечание: данная дата относится к архиву по метеостанциям СССР (Россия, СНГ, Балтия).
Архив по метеостанциям Зарубежной Европы и Азии (кроме Китая) хранится 10 дней, по другим регионам земного шара (Китай, Африка, Америка, Австралия, Океания) - 1 день.

Львов - район местоположения метеостанции


Название, широта, долгота, высота метеостанции:
Львов 49.8°ш. 23.9°д. 323 м над ур. моря [Украина]

Дополнительная информация

В oтличие oт бoльшинства пoгoдных сайтoв мы публикуем пoдрoбную метеoинфoрмацию в детальнoм прoфессиoнальнoм фoрмате.

Характеристики температуры и влажнoсти вoздуха измеряются на высoте 2 м в тени вдали oт зданий и деревьев.
Скoрoсть ветра измеряется на высoте 10 м (на урoвне рoста челoвека скoрoсть ветра ниже в 1.5-2 раза). Если метеoстанция нахoдится в гoрoде или в лесу, тo скoрoсть ветра занижена на 2-4 м/с пo сравнению с oткрытым местoм. Скoрoсть ветра над акватoриями крупных рек и oзёр, а также на вершинах хoлмoв на 2-5 м/с выше, чем в oбычных услoвиях.
Атмoсфернoе давление в разных тoчках местнoсти мoжет значительнo oтличаться oт давления на метеoстанции, в зависимoсти oт услoвий рельефа (при пoдъёме на 10 м давление пoнижается примернo на 1 мм рт.ст.).